Regional Weather Roundup
Issued by NWS

Home | Current Version | Previous Version | Graphics & Text | Print | Product List | Glossary On
Versions: 1 2 3 4 5 6 7 8 9 10 11 12 13 14 15 16 17 18 19 20 21 22 23 24 25 26 27 28 29 30 31 32 33 34 35 36 37 38 39 40 41 42 43 44 45 46 47 48 49 50
874
ASUS45 KBOU 191507
RWRCO

WEATHER ROUNDUP FOR COLORADO
NATIONAL WEATHER SERVICE DENVER/BOULDER CO
900 AM MDT SAT AUG 19 2017

NOTE: "FAIR" INDICATES FEW OR NO CLOUDS BELOW 12000 FEET WITH NO
SIGNIFICANT WEATHER AND/OR OBSTRUCTIONS TO VISIBILITY.

COZ001>005-013-030-031-191600-
...NORTHWEST COLORADO...

CITY           SKY/WX    TMP DP  RH WIND       PRES   REMARKS
CRAIG          FAIR      61  40  45 CALM      30.25S
HAYDEN         FAIR      62  37  39 E6        30.28S
MEEKER         FAIR      60  39  45 CALM      30.26S
RABBIT EARS PA FAIR      54  32  43 W7        30.53R
STEAMBOAT SPGS FAIR      56  38  51 CALM      30.29S
WALDEN         FAIR      54  34  47 CALM      30.37S
$$

COZ006>008-011-191600-
...WEST CENTRAL VALLEYS...

CITY           SKY/WX    TMP DP  RH WIND       PRES   REMARKS
GRAND JUNCTION FAIR      72  38  29 SE13      30.15R
MONTROSE       FAIR      67  41  38 CALM      30.24R
EAGLE          FAIR      57  33  40 CALM      30.33S
RIFLE          FAIR      63  38  39 W3        30.22S
DELTA          FAIR      68  37  32 E3        30.20S
NUCLA          FAIR      66  32  28 CALM      30.26S
$$

COZ017>023-064>068-191600-
...SOUTHWEST COLORADO...

CITY           SKY/WX    TMP DP  RH WIND       PRES   REMARKS
DURANGO        FAIR      59  39  47 CALM      30.31R
CORTEZ         FAIR      67  41  38 SE5       30.23S
PAGOSA SPRINGS FAIR      64  34  33 CALM      30.38F
TELLURIDE      FAIR      61  32  33 CALM      30.48S
WOLF CREEK PAS NOT AVBL
$$

COZ009-010-012-014-032>034-037-058>063-191600-
...CENTRAL COLORADO...

CITY           SKY/WX    TMP DP  RH WIND       PRES   REMARKS
ASPEN          FAIR      63  35  35 CALM      30.34S
BUENA VISTA    FAIR      61  35  38 N3        30.39F
COPPER MTN     FAIR      57  27  30 W6G16     30.65S
BERTHOUD PASS  FAIR      46  41  81 W31G37    30.65S
COTTONWOOD PAS FAIR      63  32  31 CALM      30.51R
GUNNISON       NOT AVBL
KREMMLING      FAIR      59  39  47 CALM      30.36F
LEADVILLE      FAIR      53  29  39 SW5       30.50R
SALIDA         FAIR      61  39  44 NW8       30.44S
SUNLIGHT       FAIR      54  30  40 SW3       30.59R
WILKERSON PASS FAIR      52  32  46 SW6       30.63S
$$

COZ069>075-191600-
...SAN LUIS VALLEY/SANGRE DE CRISTO MOUNTAINS...

CITY           SKY/WX    TMP DP  RH WIND       PRES   REMARKS
ALAMOSA        FAIR      62  42  47 N3        30.37S
DEL NORTE      FAIR      62  38  41 SW6       30.41S
LA VETA PASS   NOT AVBL
SAGUACHE       PTSUNNY   61  37  41 CALM      30.40F
$$

COZ035-036-038>040-191600-
...NORTHERN COLORADO FRONT RANGE...

CITY           SKY/WX    TMP DP  RH WIND       PRES   REMARKS
DENVER INTL AP FAIR      76  42  29 SW10      30.12S
DMNS CITY PARK   N/A     74  44  34 SE9       30.12S
AURORA         MOSUNNY   74  45  35 SW10      30.14S
FRONT RANGE AP MOSUNNY   77  45  31 SW13      30.14S
ERIE MUNI ARPT FAIR      74  42  30 S6        30.15F
BOULDER MUN AP FAIR      70  50  49 CALM      30.10S
CENTENNIAL     FAIR      76  40  27 SW9       30.16S
BROOMFIELD     MOSUNNY   72  46  40 CALM      30.14
FORT COLLINS   FAIR      70  47  43 N3        30.10S
LONGMONT       FAIR      74  48  39 CALM      30.10F
$$

COZ041-046-047-076>085-087-088-191600-
...PIKES PEAK/PALMER DIVIDE AND SOUTHERN FOOTHILLS...

CITY           SKY/WX    TMP DP  RH WIND       PRES   REMARKS
COLO. SPRINGS  PTSUNNY   74  48  39 SW3       30.21S
A. F. ACADEMY  FAIR      74  44  34 NE6       30.22S
SCHRIEVER AFB  FAIR      73  44  34 W8        30.20S
CHEYENNE MTN   FAIR      75  29  18 N3        30.21R
ELLICOTT       NOT AVBL
FALCON         FAIR      76  38  24 NW10G18   30.26S
FORT CARSON    FAIR      70  52  52 N5        30.17S
LIMON          FAIR      67  58  72 S6        30.14F
MONUMENT HILL  FAIR      72  45  37 W8        30.27S
CANON CITY     SUNNY     77  46  33 W20G25    30.15F
WALSENBURG     FAIR      82  43  24 W13G21    30.20F
TRINIDAD       FAIR      73  48  41 W10       30.19S
$$

COZ042>045-048>051-090-091-191600-
...NORTHEAST COLORADO...

CITY           SKY/WX    TMP DP  RH WIND       PRES   REMARKS
GREELEY ARPT   FAIR      67  54  63 CALM      30.08F
AKRON          FAIR      74  55  51 SW17      30.06S
BURLINGTON     FAIR      77  64  64 S16       30.05F
WRAY           NOT AVBL
YUMA           FAIR      73  50  43 SW12      30.04R
STERLING       FAIR      70  59  68 SW8       30.01S
HOLYOKE        FAIR      73  63  68 SW6       30.02F
FORT MORGAN    FAIR      71  54  54 W8        30.06S
$$

COZ086-089-092>099-191600-
...SOUTHEAST COLORADO...

CITY           SKY/WX    TMP DP  RH WIND       PRES   REMARKS
PUEBLO         FAIR      71  55  56 S3        30.11S
LA JUNTA       FAIR      71  57  61 W9        30.09S
LAMAR          FAIR      74  62  66 NW9       30.04R
SPRINGFIELD      N/A     81  61  50 SW9G18    30.09F
$$




USA.gov is the U.S. government's official web portal to all federal, state and local government web resources and services.